Time,TemperatureF,DewpointF,PressureIn,WindDirection,WindDirectionDegrees,WindSpeedMPH,WindSpeedGustMPH,Humidity,HourlyPrecipIn,Conditions,Clouds,dailyrainin,SoftwareType,DateUTC
2013-07-05 00:02:00,74.5,56.7,29.88,North,0,0.0,0.0,54,0.00,,,0.00,WUHU21623XXSP,2013-07-05 05:02:00,
2013-07-05 00:07:00,74.3,56.5,29.88,North,0,0.0,0.0,54,0.00,,,0.00,WUHU21623XXSP,2013-07-05 05:07:00,
2013-07-05 00:12:00,74.1,56.3,29.88,North,0,0.0,0.0,54,0.00,,,0.00,WUHU21623XXSP,2013-07-05 05:12:00,
2013-07-05 00:17:00,73.9,56.7,29.88,North,0,0.0,0.0,55,0.00,,,0.00,WUHU21623XXSP,2013-07-05 05:17:00,
2013-07-05 00:22:00,73.9,56.7,29.88,North,0,0.0,0.0,55,0.00,,,0.00,WUHU21623XXSP,2013-07-05 05:22:00,
2013-07-05 00:27:00,73.8,56.5,29.89,North,0,0.0,0.0,55,0.00,,,0.00,WUHU21623XXSP,2013-07-05 05:27:00,
2013-07-05 00:32:00,73.6,56.3,29.89,North,0,0.0,0.0,55,0.00,,,0.00,WUHU21623XXSP,2013-07-05 05:32:00,
2013-07-05 00:37:00,73.4,56.1,29.88,North,0,0.0,0.0,55,0.00,,,0.00,WUHU21623XXSP,2013-07-05 05:37:00,
2013-07-05 00:42:00,73.2,56.5,29.89,North,0,0.0,0.0,56,0.00,,,0.00,WUHU21623XXSP,2013-07-05 05:42:00,
2013-07-05 00:47:00,73.0,56.3,29.88,North,0,0.0,0.0,56,0.00,,,0.00,WUHU21623XXSP,2013-07-05 05:47:00,
2013-07-05 00:52:00,72.7,56.5,29.88,North,0,0.0,0.0,57,0.00,,,0.00,WUHU21623XXSP,2013-07-05 05:52:00,
2013-07-05 00:57:00,72.7,56.5,29.89,North,0,0.0,0.0,57,0.00,,,0.00,WUHU21623XXSP,2013-07-05 05:57:00,
2013-07-05 01:02:00,72.7,56.5,29.88,North,0,0.0,0.0,57,0.00,,,0.00,WUHU21623XXSP,2013-07-05 06:02:00,
2013-07-05 01:07:00,72.5,56.3,29.88,North,0,0.0,0.0,57,0.00,,,0.00,WUHU21623XXSP,2013-07-05 06:07:00,
2013-07-05 01:12:00,72.3,56.7,29.89,North,0,0.0,0.0,58,0.00,,,0.00,WUHU21623XXSP,2013-07-05 06:12:00,
2013-07-05 01:17:00,72.1,56.5,29.89,North,0,0.0,0.0,58,0.00,,,0.00,WUHU21623XXSP,2013-07-05 06:17:00,
2013-07-05 01:22:00,72.0,56.8,29.89,North,0,0.0,0.0,59,0.00,,,0.00,WUHU21623XXSP,2013-07-05 06:22:00,
2013-07-05 01:27:00,72.0,56.8,29.89,North,0,0.0,0.0,59,0.00,,,0.00,WUHU21623XXSP,2013-07-05 06:27:00,
2013-07-05 01:32:00,72.0,56.8,29.89,North,0,0.0,0.0,59,0.00,,,0.00,WUHU21623XXSP,2013-07-05 06:32:00,
2013-07-05 01:37:00,71.8,56.7,29.89,North,0,0.0,0.0,59,0.00,,,0.00,WUHU21623XXSP,2013-07-05 06:37:00,
2013-07-05 01:42:00,71.8,57.2,29.89,North,0,0.0,0.0,60,0.00,,,0.00,WUHU21623XXSP,2013-07-05 06:42:00,
2013-07-05 01:47:00,71.8,57.2,29.88,North,0,0.0,0.0,60,0.00,,,0.00,WUHU21623XXSP,2013-07-05 06:47:00,
2013-07-05 01:52:00,71.4,57.3,29.88,North,0,0.0,0.0,61,0.00,,,0.00,WUHU21623XXSP,2013-07-05 06:52:00,
2013-07-05 01:57:00,71.4,57.3,29.88,North,0,0.0,0.0,61,0.00,,,0.00,WUHU21623XXSP,2013-07-05 06:57:00,
2013-07-05 02:02:00,71.4,57.3,29.88,North,0,0.0,0.0,61,0.00,,,0.00,WUHU21623XXSP,2013-07-05 07:02:00,
2013-07-05 02:07:00,71.2,57.1,29.88,North,0,0.0,0.0,61,0.00,,,0.00,WUHU21623XXSP,2013-07-05 07:07:00,
2013-07-05 02:12:00,71.1,56.9,29.88,North,0,0.0,0.0,61,0.00,,,0.00,WUHU21623XXSP,2013-07-05 07:12:00,
2013-07-05 02:17:00,70.9,57.2,29.88,North,0,0.0,0.0,62,0.00,,,0.00,WUHU21623XXSP,2013-07-05 07:17:00,
2013-07-05 02:22:00,70.7,57.1,29.89,North,0,0.0,0.0,62,0.00,,,0.00,WUHU21623XXSP,2013-07-05 07:22:00,
2013-07-05 02:27:00,70.7,57.5,29.89,North,0,0.0,0.0,63,0.00,,,0.00,WUHU21623XXSP,2013-07-05 07:27:00,
2013-07-05 02:32:00,70.5,57.3,29.89,North,0,0.0,0.0,63,0.00,,,0.00,WUHU21623XXSP,2013-07-05 07:32:00,
2013-07-05 02:37:00,70.5,57.3,29.89,North,0,0.0,0.0,63,0.00,,,0.00,WUHU21623XXSP,2013-07-05 07:37:00,
2013-07-05 02:42:00,70.5,57.7,29.89,North,0,0.0,0.0,64,0.00,,,0.00,WUHU21623XXSP,2013-07-05 07:42:00,
2013-07-05 02:47:00,70.5,57.7,29.88,North,0,0.0,0.0,64,0.00,,,0.00,WUHU21623XXSP,2013-07-05 07:47:00,
2013-07-05 02:52:00,70.7,57.9,29.88,North,0,0.0,0.0,64,0.00,,,0.00,WUHU21623XXSP,2013-07-05 07:52:00,
2013-07-05 02:57:00,70.5,57.7,29.89,North,0,0.0,0.0,64,0.00,,,0.00,WUHU21623XXSP,2013-07-05 07:57:00,
2013-07-05 03:02:00,70.7,57.9,29.89,North,0,0.0,0.0,64,0.00,,,0.00,WUHU21623XXSP,2013-07-05 08:02:00,
2013-07-05 03:07:00,70.5,57.7,29.89,North,0,0.0,0.0,64,0.00,,,0.00,WUHU21623XXSP,2013-07-05 08:07:00,
2013-07-05 03:12:00,70.5,57.7,29.89,North,0,0.0,0.0,64,0.00,,,0.00,WUHU21623XXSP,2013-07-05 08:12:00,
2013-07-05 03:17:00,70.5,57.7,29.89,North,0,0.0,0.0,64,0.00,,,0.00,WUHU21623XXSP,2013-07-05 08:17:00,
2013-07-05 03:22:00,70.5,58.2,29.89,North,0,0.0,0.0,65,0.00,,,0.00,WUHU21623XXSP,2013-07-05 08:22:00,
2013-07-05 03:27:00,70.5,58.6,29.89,North,0,0.0,0.0,66,0.00,,,0.00,WUHU21623XXSP,2013-07-05 08:27:00,
2013-07-05 03:32:00,70.0,58.5,29.89,North,0,0.0,0.0,67,0.00,,,0.00,WUHU21623XXSP,2013-07-05 08:32:00,
2013-07-05 03:37:00,69.1,58.9,29.89,North,0,0.0,0.0,70,0.00,,,0.00,WUHU21623XXSP,2013-07-05 08:37:00,
2013-07-05 03:42:00,68.7,58.6,29.89,North,0,0.0,0.0,70,0.00,,,0.00,WUHU21623XXSP,2013-07-05 08:42:00,
2013-07-05 03:47:00,68.2,58.5,29.89,North,0,0.0,0.0,71,0.00,,,0.00,WUHU21623XXSP,2013-07-05 08:47:00,
2013-07-05 03:52:00,68.2,58.5,29.88,North,0,0.0,0.0,71,0.00,,,0.00,WUHU21623XXSP,2013-07-05 08:52:00,
2013-07-05 03:57:00,68.2,58.5,29.89,North,0,0.0,0.0,71,0.00,,,0.00,WUHU21623XXSP,2013-07-05 08:57:00,
2013-07-05 04:02:00,68.5,58.4,29.88,North,0,0.0,0.0,70,0.00,,,0.00,WUHU21623XXSP,2013-07-05 09:02:00,
2013-07-05 04:07:00,68.5,58.4,29.89,North,0,0.0,0.0,70,0.00,,,0.00,WUHU21623XXSP,2013-07-05 09:07:00,
2013-07-05 04:12:00,68.7,58.6,29.89,North,0,0.0,0.0,70,0.00,,,0.00,WUHU21623XXSP,2013-07-05 09:12:00,
2013-07-05 04:17:00,68.7,58.6,29.88,North,0,0.0,0.0,70,0.00,,,0.00,WUHU21623XXSP,2013-07-05 09:17:00,
2013-07-05 04:22:00,68.7,58.6,29.88,North,0,0.0,0.0,70,0.00,,,0.00,WUHU21623XXSP,2013-07-05 09:22:00,
2013-07-05 04:28:00,68.7,58.6,29.88,North,0,0.0,0.0,70,0.00,,,0.00,WUHU21623XXSP,2013-07-05 09:28:00,
2013-07-05 04:33:00,68.7,58.6,29.89,North,0,0.0,0.0,70,0.00,,,0.00,WUHU21623XXSP,2013-07-05 09:33:00,
2013-07-05 04:38:00,68.7,58.6,29.89,North,0,0.0,0.0,70,0.00,,,0.00,WUHU21623XXSP,2013-07-05 09:38:00,
2013-07-05 04:43:00,68.7,58.6,29.88,North,0,0.0,0.0,70,0.00,,,0.00,WUHU21623XXSP,2013-07-05 09:43:00,
2013-07-05 04:48:00,68.9,58.7,29.88,North,0,0.0,0.0,70,0.00,,,0.00,WUHU21623XXSP,2013-07-05 09:48:00,
2013-07-05 04:53:00,68.9,58.7,29.89,North,0,0.0,0.0,70,0.00,,,0.00,WUHU21623XXSP,2013-07-05 09:53:00,
2013-07-05 04:58:00,68.9,58.7,29.88,North,0,0.0,0.0,70,0.00,,,0.00,WUHU21623XXSP,2013-07-05 09:58:00,
2013-07-05 05:03:00,68.9,58.7,29.88,North,0,0.0,0.0,70,0.00,,,0.00,WUHU21623XXSP,2013-07-05 10:03:00,
2013-07-05 05:08:00,68.9,58.7,29.89,North,0,0.0,0.0,70,0.00,,,0.00,WUHU21623XXSP,2013-07-05 10:08:00,
2013-07-05 05:13:00,68.9,58.7,29.89,North,0,0.0,0.0,70,0.00,,,0.00,WUHU21623XXSP,2013-07-05 10:13:00,
2013-07-05 05:18:00,68.9,58.7,29.88,North,0,0.0,0.0,70,0.00,,,0.00,WUHU21623XXSP,2013-07-05 10:18:00,
2013-07-05 05:23:00,68.9,58.7,29.88,North,0,0.0,0.0,70,0.00,,,0.00,WUHU21623XXSP,2013-07-05 10:23:00,
2013-07-05 05:28:00,69.1,58.9,29.88,North,0,0.0,0.0,70,0.00,,,0.00,WUHU21623XXSP,2013-07-05 10:28:00,
2013-07-05 05:34:00,69.1,58.9,29.88,North,0,0.0,0.0,70,0.00,,,0.00,WUHU21623XXSP,2013-07-05 10:34:00,
2013-07-05 05:39:00,69.3,59.1,29.88,North,0,0.0,0.0,70,0.00,,,0.00,WUHU21623XXSP,2013-07-05 10:39:00,
2013-07-05 05:44:00,69.3,59.1,29.88,North,0,0.0,0.0,70,0.00,,,0.00,WUHU21623XXSP,2013-07-05 10:44:00,
2013-07-05 05:49:00,69.3,59.1,29.88,North,0,0.0,0.0,70,0.00,,,0.00,WUHU21623XXSP,2013-07-05 10:49:00,
2013-07-05 05:54:00,69.4,59.2,29.88,North,0,0.0,0.0,70,0.00,,,0.00,WUHU21623XXSP,2013-07-05 10:54:00,
2013-07-05 05:59:00,69.4,58.8,29.88,North,0,0.0,0.0,69,0.00,,,0.00,WUHU21623XXSP,2013-07-05 10:59:00,
2013-07-05 06:05:00,69.4,58.8,29.88,North,0,0.0,0.0,69,0.00,,,0.00,WUHU21623XXSP,2013-07-05 11:05:00,
2013-07-05 06:10:00,69.6,58.9,29.89,North,0,0.0,0.0,69,0.00,,,0.00,WUHU21623XXSP,2013-07-05 11:10:00,
2013-07-05 06:15:00,69.8,59.1,29.89,North,0,0.0,0.0,69,0.00,,,0.00,WUHU21623XXSP,2013-07-05 11:15:00,
2013-07-05 06:20:00,70.0,59.3,29.90,North,0,0.0,0.0,69,0.00,,,0.00,WUHU21623XXSP,2013-07-05 11:20:00,
2013-07-05 06:25:00,70.2,60.3,29.90,North,0,0.0,0.0,71,0.00,,,0.00,WUHU21623XXSP,2013-07-05 11:25:00,
2013-07-05 06:30:00,69.8,59.9,29.90,North,0,0.0,0.0,71,0.00,,,0.00,WUHU21623XXSP,2013-07-05 11:30:00,
2013-07-05 06:36:00,69.8,59.9,29.89,North,0,0.0,0.0,71,0.00,,,0.00,WUHU21623XXSP,2013-07-05 11:36:00,
2013-07-05 06:41:00,69.6,59.8,29.88,North,0,0.0,0.0,71,0.00,,,0.00,WUHU21623XXSP,2013-07-05 11:41:00,
2013-07-05 06:46:00,69.6,59.8,29.88,North,0,0.0,0.0,71,0.00,,,0.00,WUHU21623XXSP,2013-07-05 11:46:00,
2013-07-05 06:52:00,69.4,59.6,29.88,North,0,0.0,0.0,71,0.00,,,0.00,WUHU21623XXSP,2013-07-05 11:52:00,
2013-07-05 06:57:00,69.4,60.0,29.88,North,0,0.0,0.0,72,0.00,,,0.00,WUHU21623XXSP,2013-07-05 11:57:00,
2013-07-05 07:02:00,69.6,60.1,29.88,North,0,0.0,0.0,72,0.00,,,0.00,WUHU21623XXSP,2013-07-05 12:02:00,
2013-07-05 07:07:00,69.6,60.1,29.87,North,0,0.0,0.0,72,0.00,,,0.00,WUHU21623XXSP,2013-07-05 12:07:00,
2013-07-05 07:12:00,69.6,60.1,29.87,North,0,0.0,0.0,72,0.00,,,0.00,WUHU21623XXSP,2013-07-05 12:12:00,
2013-07-05 07:18:00,69.6,59.8,29.87,North,0,0.0,0.0,71,0.00,,,0.00,WUHU21623XXSP,2013-07-05 12:18:00,
2013-07-05 07:23:00,69.6,59.8,29.88,North,0,0.0,0.0,71,0.00,,,0.00,WUHU21623XXSP,2013-07-05 12:23:00,
2013-07-05 07:28:00,70.0,60.1,29.87,North,0,0.0,0.0,71,0.00,,,0.00,WUHU21623XXSP,2013-07-05 12:28:00,
2013-07-05 07:33:00,70.3,60.5,29.88,North,0,0.0,0.0,71,0.00,,,0.00,WUHU21623XXSP,2013-07-05 12:33:00,
2013-07-05 07:39:00,70.7,60.4,29.88,North,0,0.0,0.0,70,0.00,,,0.00,WUHU21623XXSP,2013-07-05 12:39:00,
2013-07-05 07:44:00,71.2,60.5,29.88,North,0,0.0,0.0,69,0.00,,,0.00,WUHU21623XXSP,2013-07-05 12:44:00,
2013-07-05 07:49:00,71.4,60.7,29.88,North,0,0.0,0.0,69,0.00,,,0.00,WUHU21623XXSP,2013-07-05 12:49:00,
2013-07-05 07:54:00,72.3,61.6,29.87,North,0,0.0,0.0,69,0.00,,,0.00,WUHU21623XXSP,2013-07-05 12:54:00,
2013-07-05 07:59:00,72.7,61.5,29.87,North,0,0.0,0.0,68,0.00,,,0.00,WUHU21623XXSP,2013-07-05 12:59:00,
2013-07-05 08:05:00,73.2,61.6,29.87,North,0,0.0,0.0,67,0.00,,,0.00,WUHU21623XXSP,2013-07-05 13:05:00,
2013-07-05 08:10:00,73.4,61.3,29.87,North,0,0.0,0.0,66,0.00,,,0.00,WUHU21623XXSP,2013-07-05 13:10:00,
2013-07-05 08:15:00,73.6,61.5,29.87,North,0,0.0,0.0,66,0.00,,,0.00,WUHU21623XXSP,2013-07-05 13:15:00,
2013-07-05 08:20:00,73.4,60.9,29.87,North,0,0.0,0.0,65,0.00,,,0.00,WUHU21623XXSP,2013-07-05 13:20:00,
2013-07-05 08:25:00,73.6,61.5,29.87,North,0,0.0,0.0,66,0.00,,,0.00,WUHU21623XXSP,2013-07-05 13:25:00,
2013-07-05 08:30:00,74.1,61.6,29.87,North,0,0.0,0.0,65,0.00,,,0.00,WUHU21623XXSP,2013-07-05 13:30:00,
2013-07-05 08:35:00,74.5,62.3,29.87,North,0,0.0,0.0,66,0.00,,,0.00,WUHU21623XXSP,2013-07-05 13:35:00,
2013-07-05 08:40:00,75.0,62.4,29.87,North,0,0.0,0.0,65,0.00,,,0.00,WUHU21623XXSP,2013-07-05 13:40:00,
2013-07-05 08:45:00,75.9,62.8,29.86,North,0,0.0,0.0,64,0.00,,,0.00,WUHU21623XXSP,2013-07-05 13:45:00,
2013-07-05 08:51:00,76.5,62.9,29.86,North,0,0.0,0.0,63,0.00,,,0.00,WUHU21623XXSP,2013-07-05 13:51:00,
2013-07-05 08:56:00,77.2,63.1,29.87,North,0,0.0,0.0,62,0.00,,,0.00,WUHU21623XXSP,2013-07-05 13:56:00,
2013-07-05 09:01:00,77.4,63.3,29.87,North,0,0.0,0.0,62,0.00,,,0.00,WUHU21623XXSP,2013-07-05 14:01:00,
2013-07-05 09:06:00,77.5,63.0,29.87,North,0,0.0,0.0,61,0.00,,,0.00,WUHU21623XXSP,2013-07-05 14:06:00,
2013-07-05 09:11:00,77.4,62.9,29.86,North,0,0.0,0.0,61,0.00,,,0.00,WUHU21623XXSP,2013-07-05 14:11:00,
2013-07-05 09:16:00,77.4,62.9,29.86,North,0,0.0,0.0,61,0.00,,,0.00,WUHU21623XXSP,2013-07-05 14:16:00,
2013-07-05 09:21:00,77.4,62.4,29.86,North,0,0.0,0.0,60,0.00,,,0.00,WUHU21623XXSP,2013-07-05 14:21:00,
2013-07-05 09:26:00,77.2,62.7,29.86,North,0,0.0,0.0,61,0.00,,,0.00,WUHU21623XXSP,2013-07-05 14:26:00,
2013-07-05 09:31:00,77.5,63.0,29.86,North,0,0.0,0.0,61,0.00,,,0.00,WUHU21623XXSP,2013-07-05 14:31:00,
2013-07-05 09:36:00,78.6,64.1,29.86,North,0,0.0,0.0,61,0.00,,,0.00,WUHU21623XXSP,2013-07-05 14:36:00,
2013-07-05 09:42:00,79.3,64.3,29.86,North,0,0.0,0.0,60,0.00,,,0.00,WUHU21623XXSP,2013-07-05 14:42:00,
2013-07-05 09:47:00,79.9,64.3,29.86,North,0,0.0,0.0,59,0.00,,,0.00,WUHU21623XXSP,2013-07-05 14:47:00,
2013-07-05 09:52:00,80.6,64.4,29.86,North,0,0.0,0.0,58,0.00,,,0.00,WUHU21623XXSP,2013-07-05 14:52:00,
2013-07-05 09:57:00,80.8,64.1,29.86,North,0,0.0,0.0,57,0.00,,,0.00,WUHU21623XXSP,2013-07-05 14:57:00,
2013-07-05 10:02:00,81.0,64.8,29.86,North,0,0.0,0.0,58,0.00,,,0.00,WUHU21623XXSP,2013-07-05 15:02:00,
2013-07-05 10:07:00,81.1,64.4,29.86,North,0,0.0,0.0,57,0.00,,,0.00,WUHU21623XXSP,2013-07-05 15:07:00,
2013-07-05 10:13:00,81.1,64.4,29.85,North,0,0.0,0.0,57,0.00,,,0.00,WUHU21623XXSP,2013-07-05 15:13:00,
2013-07-05 10:19:00,81.1,63.9,29.86,North,0,0.0,0.0,56,0.00,,,0.00,WUHU21623XXSP,2013-07-05 15:19:00,
2013-07-05 10:24:00,81.0,64.2,29.86,North,0,0.0,0.0,57,0.00,,,0.00,WUHU21623XXSP,2013-07-05 15:24:00,
2013-07-05 10:29:00,80.8,64.1,29.86,North,0,0.0,0.0,57,0.00,,,0.00,WUHU21623XXSP,2013-07-05 15:29:00,
2013-07-05 10:34:00,80.8,64.1,29.86,North,0,0.0,0.0,57,0.00,,,0.00,WUHU21623XXSP,2013-07-05 15:34:00,
2013-07-05 10:39:00,80.8,64.1,29.86,North,0,0.0,0.0,57,0.00,,,0.00,WUHU21623XXSP,2013-07-05 15:39:00,
2013-07-05 10:44:00,80.8,64.1,29.86,North,0,0.0,0.0,57,0.00,,,0.00,WUHU21623XXSP,2013-07-05 15:44:00,
2013-07-05 10:49:00,80.8,64.1,29.86,North,0,0.0,0.0,57,0.00,,,0.00,WUHU21623XXSP,2013-07-05 15:49:00,
2013-07-05 10:54:00,81.1,64.4,29.86,North,0,0.0,0.0,57,0.00,,,0.00,WUHU21623XXSP,2013-07-05 15:54:00,
2013-07-05 10:59:00,81.3,65.1,29.86,North,0,0.0,0.0,58,0.00,,,0.00,WUHU21623XXSP,2013-07-05 15:59:00,
2013-07-05 11:04:00,82.0,65.7,29.86,North,0,0.0,0.0,58,0.00,,,0.00,WUHU21623XXSP,2013-07-05 16:04:00,
2013-07-05 11:09:00,82.6,65.7,29.86,North,0,0.0,0.0,57,0.00,,,0.00,WUHU21623XXSP,2013-07-05 16:09:00,
2013-07-05 11:14:00,82.9,65.6,29.86,North,0,0.0,0.0,56,0.00,,,0.00,WUHU21623XXSP,2013-07-05 16:14:00,
2013-07-05 11:20:00,83.5,66.1,29.85,North,0,0.0,0.0,56,0.00,,,0.00,WUHU21623XXSP,2013-07-05 16:20:00,
2013-07-05 11:25:00,83.8,65.4,29.86,North,0,0.0,0.0,54,0.00,,,0.00,WUHU21623XXSP,2013-07-05 16:25:00,
2013-07-05 11:30:00,84.0,66.1,29.85,North,0,0.0,0.0,55,0.00,,,0.00,WUHU21623XXSP,2013-07-05 16:30:00,
2013-07-05 11:35:00,84.0,65.6,29.85,North,0,0.0,0.0,54,0.00,,,0.00,WUHU21623XXSP,2013-07-05 16:35:00,
2013-07-05 11:40:00,84.0,65.6,29.85,North,0,0.0,0.0,54,0.00,,,0.00,WUHU21623XXSP,2013-07-05 16:40:00,
2013-07-05 11:45:00,84.0,66.1,29.85,North,0,0.0,0.0,55,0.00,,,0.00,WUHU21623XXSP,2013-07-05 16:45:00,
2013-07-05 11:50:00,84.6,66.6,29.85,North,0,0.0,0.0,55,0.00,,,0.00,WUHU21623XXSP,2013-07-05 16:50:00,
2013-07-05 11:55:00,84.7,66.3,29.85,North,0,0.0,0.0,54,0.00,,,0.00,WUHU21623XXSP,2013-07-05 16:55:00,
2013-07-05 12:00:00,84.6,66.1,29.85,North,0,0.0,0.0,54,0.00,,,0.00,WUHU21623XXSP,2013-07-05 17:00:00,
2013-07-05 12:05:00,84.4,65.4,29.85,North,0,0.0,0.0,53,0.00,,,0.00,WUHU21623XXSP,2013-07-05 17:05:00,
2013-07-05 12:10:00,84.4,65.4,29.85,North,0,0.0,0.0,53,0.00,,,0.00,WUHU21623XXSP,2013-07-05 17:10:00,
2013-07-05 12:15:00,84.0,65.1,29.85,North,0,0.0,0.0,53,0.00,,,0.00,WUHU21623XXSP,2013-07-05 17:15:00,
2013-07-05 12:20:00,84.4,65.4,29.85,North,0,0.0,0.0,53,0.00,,,0.00,WUHU21623XXSP,2013-07-05 17:20:00,
2013-07-05 12:25:00,84.7,65.7,29.85,North,0,0.0,0.0,53,0.00,,,0.00,WUHU21623XXSP,2013-07-05 17:25:00,
2013-07-05 12:30:00,84.9,65.9,29.85,North,0,0.0,0.0,53,0.00,,,0.00,WUHU21623XXSP,2013-07-05 17:30:00,
2013-07-05 12:35:00,84.9,65.9,29.85,North,0,0.0,0.0,53,0.00,,,0.00,WUHU21623XXSP,2013-07-05 17:35:00,
2013-07-05 12:40:00,85.3,66.2,29.85,North,0,0.0,0.0,53,0.00,,,0.00,WUHU21623XXSP,2013-07-05 17:40:00,
2013-07-05 12:45:00,85.3,65.7,29.85,North,0,0.0,0.0,52,0.00,,,0.00,WUHU21623XXSP,2013-07-05 17:45:00,
2013-07-05 12:50:00,85.3,65.7,29.85,North,0,0.0,0.0,52,0.00,,,0.00,WUHU21623XXSP,2013-07-05 17:50:00,
2013-07-05 12:55:00,85.3,65.7,29.85,North,0,0.0,0.0,52,0.00,,,0.00,WUHU21623XXSP,2013-07-05 17:55:00,
2013-07-05 13:00:00,85.3,65.7,29.85,North,0,0.0,0.0,52,0.00,,,0.00,WUHU21623XXSP,2013-07-05 18:00:00,
2013-07-05 13:06:00,85.3,66.2,29.85,North,0,0.0,0.0,53,0.00,,,0.00,WUHU21623XXSP,2013-07-05 18:06:00,
2013-07-05 13:11:00,85.8,66.7,29.85,North,0,0.0,0.0,53,0.00,,,0.00,WUHU21623XXSP,2013-07-05 18:11:00,
2013-07-05 13:16:00,86.0,66.9,29.85,North,0,0.0,0.0,53,0.00,,,0.00,WUHU21623XXSP,2013-07-05 18:16:00,
2013-07-05 13:21:00,86.2,67.0,29.84,North,0,0.0,0.0,53,0.00,,,0.00,WUHU21623XXSP,2013-07-05 18:21:00,
2013-07-05 13:26:00,86.2,66.5,29.84,North,0,0.0,0.0,52,0.00,,,0.00,WUHU21623XXSP,2013-07-05 18:26:00,
2013-07-05 13:31:00,86.0,66.3,29.84,North,0,0.0,0.0,52,0.00,,,0.00,WUHU21623XXSP,2013-07-05 18:31:00,
2013-07-05 13:36:00,86.0,66.3,29.84,North,0,0.0,0.0,52,0.00,,,0.00,WUHU21623XXSP,2013-07-05 18:36:00,
2013-07-05 13:41:00,86.2,67.6,29.84,North,0,0.0,0.0,54,0.00,,,0.00,WUHU21623XXSP,2013-07-05 18:41:00,
2013-07-05 13:46:00,86.4,67.2,29.84,North,0,0.0,0.0,53,0.00,,,0.00,WUHU21623XXSP,2013-07-05 18:46:00,
2013-07-05 13:51:00,86.2,66.5,29.84,North,0,0.0,0.0,52,0.00,,,0.00,WUHU21623XXSP,2013-07-05 18:51:00,
2013-07-05 13:56:00,86.2,66.5,29.84,North,0,0.0,0.0,52,0.00,,,0.00,WUHU21623XXSP,2013-07-05 18:56:00,
2013-07-05 14:01:00,86.4,66.7,29.83,North,0,0.0,0.0,52,0.00,,,0.00,WUHU21623XXSP,2013-07-05 19:01:00,
2013-07-05 14:06:00,86.2,66.5,29.83,North,0,0.0,0.0,52,0.00,,,0.00,WUHU21623XXSP,2013-07-05 19:06:00,
2013-07-05 14:11:00,85.6,66.0,29.83,North,0,0.0,0.0,52,0.00,,,0.00,WUHU21623XXSP,2013-07-05 19:11:00,
2013-07-05 14:16:00,85.6,66.0,29.83,North,0,0.0,0.0,52,0.00,,,0.00,WUHU21623XXSP,2013-07-05 19:16:00,
2013-07-05 14:21:00,85.5,65.9,29.83,North,0,0.0,0.0,52,0.00,,,0.00,WUHU21623XXSP,2013-07-05 19:21:00,
2013-07-05 14:26:00,85.6,66.5,29.83,North,0,0.0,0.0,53,0.00,,,0.00,WUHU21623XXSP,2013-07-05 19:26:00,
2013-07-05 14:31:00,85.8,66.7,29.83,North,0,0.0,0.0,53,0.00,,,0.00,WUHU21623XXSP,2013-07-05 19:31:00,
2013-07-05 14:36:00,86.0,66.3,29.83,North,0,0.0,0.0,52,0.00,,,0.00,WUHU21623XXSP,2013-07-05 19:36:00,
2013-07-05 14:41:00,86.0,66.9,29.83,North,0,0.0,0.0,53,0.00,,,0.00,WUHU21623XXSP,2013-07-05 19:41:00,
2013-07-05 14:46:00,86.5,67.4,29.83,North,0,0.0,0.0,53,0.00,,,0.00,WUHU21623XXSP,2013-07-05 19:46:00,
2013-07-05 14:51:00,87.4,67.7,29.83,North,0,0.0,0.0,52,0.00,,,0.00,WUHU21623XXSP,2013-07-05 19:51:00,
2013-07-05 14:56:00,87.6,67.3,29.83,North,0,0.0,0.0,51,0.00,,,0.00,WUHU21623XXSP,2013-07-05 19:56:00,
2013-07-05 15:01:00,87.4,67.1,29.83,North,0,0.0,0.0,51,0.00,,,0.00,WUHU21623XXSP,2013-07-05 20:01:00,
2013-07-05 15:06:00,86.9,67.2,29.83,North,0,0.0,0.0,52,0.00,,,0.00,WUHU21623XXSP,2013-07-05 20:06:00,
2013-07-05 15:11:00,87.1,67.3,29.83,North,0,0.0,0.0,52,0.00,,,0.00,WUHU21623XXSP,2013-07-05 20:11:00,
2013-07-05 15:16:00,87.6,67.8,29.83,North,0,0.0,0.0,52,0.00,,,0.00,WUHU21623XXSP,2013-07-05 20:16:00,
2013-07-05 15:21:00,88.3,68.5,29.83,North,0,0.0,0.0,52,0.00,,,0.00,WUHU21623XXSP,2013-07-05 20:21:00,
2013-07-05 15:26:00,88.5,67.6,29.83,North,0,0.0,0.0,50,0.00,,,0.00,WUHU21623XXSP,2013-07-05 20:26:00,
2013-07-05 15:31:00,88.5,67.6,29.84,North,0,0.0,0.0,50,0.00,,,0.00,WUHU21623XXSP,2013-07-05 20:31:00,
2013-07-05 15:36:00,88.5,67.6,29.83,North,0,0.0,0.0,50,0.00,,,0.00,WUHU21623XXSP,2013-07-05 20:36:00,
2013-07-05 15:42:00,88.9,66.6,29.83,North,0,0.0,0.0,48,0.00,,,0.00,WUHU21623XXSP,2013-07-05 20:42:00,
2013-07-05 15:47:00,88.5,65.0,29.83,North,0,0.0,0.0,46,0.00,,,0.00,WUHU21623XXSP,2013-07-05 20:47:00,
2013-07-05 15:52:00,88.5,65.0,29.83,North,0,0.0,0.0,46,0.00,,,0.00,WUHU21623XXSP,2013-07-05 20:52:00,
2013-07-05 15:57:00,88.5,65.0,29.83,North,0,0.0,0.0,46,0.00,,,0.00,WUHU21623XXSP,2013-07-05 20:57:00,
2013-07-05 16:02:00,88.8,66.1,29.83,North,0,0.0,0.0,47,0.00,,,0.00,WUHU21623XXSP,2013-07-05 21:02:00,
2013-07-05 16:07:00,89.0,66.3,29.82,North,0,0.0,0.0,47,0.00,,,0.00,WUHU21623XXSP,2013-07-05 21:07:00,
2013-07-05 16:12:00,89.1,65.7,29.82,North,0,0.0,0.0,46,0.00,,,0.00,WUHU21623XXSP,2013-07-05 21:12:00,
2013-07-05 16:17:00,88.9,66.2,29.82,North,0,0.0,0.0,47,0.00,,,0.00,WUHU21623XXSP,2013-07-05 21:17:00,
2013-07-05 16:22:00,88.8,66.0,29.81,North,0,0.0,0.0,47,0.00,,,0.00,WUHU21623XXSP,2013-07-05 21:22:00,
2013-07-05 16:27:00,89.0,66.3,29.82,North,0,0.0,0.0,47,0.00,,,0.00,WUHU21623XXSP,2013-07-05 21:27:00,
2013-07-05 16:32:00,88.8,66.1,29.81,North,0,0.0,0.0,47,0.00,,,0.00,WUHU21623XXSP,2013-07-05 21:32:00,
2013-07-05 16:37:00,88.3,65.6,29.81,North,0,0.0,0.0,47,0.00,,,0.00,WUHU21623XXSP,2013-07-05 21:37:00,
2013-07-05 16:42:00,88.2,66.2,29.81,North,0,0.0,0.0,48,0.00,,,0.00,WUHU21623XXSP,2013-07-05 21:42:00,
2013-07-05 16:47:00,88.0,66.0,29.81,North,0,0.0,0.0,48,0.00,,,0.00,WUHU21623XXSP,2013-07-05 21:47:00,
2013-07-05 16:52:00,88.3,66.9,29.81,North,0,0.0,0.0,49,0.00,,,0.00,WUHU21623XXSP,2013-07-05 21:52:00,
2013-07-05 16:57:00,88.5,67.0,29.81,North,0,0.0,0.0,49,0.00,,,0.00,WUHU21623XXSP,2013-07-05 21:57:00,
2013-07-05 16:58:00,88.6,66.5,29.81,North,0,0.0,0.0,48,0.00,,,0.00,WUHU21623XXSP,2013-07-05 21:58:00,
2013-07-05 17:03:00,88.9,66.8,29.81,North,0,0.0,0.0,48,0.00,,,0.00,WUHU21623XXSP,2013-07-05 22:03:00,
2013-07-05 17:08:00,89.0,66.9,29.81,North,0,0.0,0.0,48,0.00,,,0.00,WUHU21623XXSP,2013-07-05 22:08:00,
2013-07-05 17:13:00,89.1,67.0,29.81,North,0,0.0,0.0,48,0.00,,,0.00,WUHU21623XXSP,2013-07-05 22:13:00,
2013-07-05 17:18:00,89.0,66.3,29.81,North,0,0.0,0.0,47,0.00,,,0.00,WUHU21623XXSP,2013-07-05 22:18:00,
2013-07-05 17:23:00,88.9,66.2,29.80,North,0,0.0,0.0,47,0.00,,,0.00,WUHU21623XXSP,2013-07-05 22:23:00,
2013-07-05 17:24:00,88.9,66.2,29.80,North,0,0.0,0.0,47,0.00,,,0.00,WUHU21623XXSP,2013-07-05 22:24:00,
2013-07-05 17:29:00,89.0,66.3,29.81,North,0,0.0,0.0,47,0.00,,,0.00,WUHU21623XXSP,2013-07-05 22:29:00,
2013-07-05 17:34:00,89.0,65.7,29.81,North,0,0.0,0.0,46,0.00,,,0.00,WUHU21623XXSP,2013-07-05 22:34:00,
2013-07-05 17:39:00,88.8,65.4,29.81,North,0,0.0,0.0,46,0.00,,,0.00,WUHU21623XXSP,2013-07-05 22:39:00,
2013-07-05 17:44:00,88.9,66.2,29.80,North,0,0.0,0.0,47,0.00,,,0.00,WUHU21623XXSP,2013-07-05 22:44:00,
2013-07-05 17:49:00,89.0,65.6,29.81,North,0,0.0,0.0,46,0.00,,,0.00,WUHU21623XXSP,2013-07-05 22:49:00,
2013-07-05 17:54:00,89.0,65.6,29.80,North,0,0.0,0.0,46,0.00,,,0.00,WUHU21623XXSP,2013-07-05 22:54:00,
2013-07-05 17:59:00,88.8,65.5,29.80,North,0,0.0,0.0,46,0.00,,,0.00,WUHU21623XXSP,2013-07-05 22:59:00,
2013-07-05 18:04:00,88.7,65.4,29.80,North,0,0.0,0.0,46,0.00,,,0.00,WUHU21623XXSP,2013-07-05 23:04:00,
2013-07-05 18:09:00,88.5,65.1,29.80,North,0,0.0,0.0,46,0.00,,,0.00,WUHU21623XXSP,2013-07-05 23:09:00,
2013-07-05 18:14:00,88.6,65.3,29.80,North,0,0.0,0.0,46,0.00,,,0.00,WUHU21623XXSP,2013-07-05 23:14:00,
2013-07-05 18:19:00,88.6,65.3,29.80,North,0,0.0,0.0,46,0.00,,,0.00,WUHU21623XXSP,2013-07-05 23:19:00,
2013-07-05 18:24:00,88.6,65.2,29.80,North,0,0.0,0.0,46,0.00,,,0.00,WUHU21623XXSP,2013-07-05 23:24:00,
2013-07-05 18:29:00,88.5,65.2,29.79,North,0,0.0,0.0,46,0.00,,,0.00,WUHU21623XXSP,2013-07-05 23:29:00,
2013-07-05 18:34:00,88.5,65.2,29.80,North,0,0.0,0.0,46,0.00,,,0.00,WUHU21623XXSP,2013-07-05 23:34:00,
2013-07-05 18:39:00,88.7,64.7,29.79,North,0,0.0,0.0,45,0.00,,,0.00,WUHU21623XXSP,2013-07-05 23:39:00,
2013-07-05 18:44:00,88.6,65.3,29.80,North,0,0.0,0.0,46,0.00,,,0.00,WUHU21623XXSP,2013-07-05 23:44:00,
2013-07-05 18:49:00,88.4,65.1,29.80,North,0,0.0,0.0,46,0.00,,,0.00,WUHU21623XXSP,2013-07-05 23:49:00,
2013-07-05 18:54:00,88.4,65.1,29.80,North,0,0.0,0.0,46,0.00,,,0.00,WUHU21623XXSP,2013-07-05 23:54:00,
2013-07-05 18:59:00,88.3,65.0,29.80,North,0,0.0,0.0,46,0.00,,,0.00,WUHU21623XXSP,2013-07-05 23:59:00,
2013-07-05 19:04:00,88.4,65.1,29.80,North,0,0.0,0.0,46,0.00,,,0.00,WUHU21623XXSP,2013-07-06 00:04:00,
2013-07-05 19:09:00,88.4,65.1,29.80,North,0,0.0,0.0,46,0.00,,,0.00,WUHU21623XXSP,2013-07-06 00:09:00,
2013-07-05 19:14:00,88.3,64.4,29.80,North,0,0.0,0.0,45,0.00,,,0.00,WUHU21623XXSP,2013-07-06 00:14:00,
2013-07-05 19:19:00,88.1,64.2,29.80,North,0,0.0,0.0,45,0.00,,,0.00,WUHU21623XXSP,2013-07-06 00:19:00,
2013-07-05 19:24:00,88.0,64.0,29.80,North,0,0.0,0.0,45,0.00,,,0.00,WUHU21623XXSP,2013-07-06 00:24:00,
2013-07-05 19:29:00,87.8,63.9,29.80,North,0,0.0,0.0,45,0.00,,,0.00,WUHU21623XXSP,2013-07-06 00:29:00,
2013-07-05 19:34:00,87.6,63.7,29.80,North,0,0.0,0.0,45,0.00,,,0.00,WUHU21623XXSP,2013-07-06 00:34:00,
2013-07-05 19:39:00,87.6,64.3,29.80,North,0,0.0,0.0,46,0.00,,,0.00,WUHU21623XXSP,2013-07-06 00:39:00,
2013-07-05 19:44:00,87.3,64.0,29.80,North,0,0.0,0.0,46,0.00,,,0.00,WUHU21623XXSP,2013-07-06 00:44:00,
2013-07-05 19:49:00,87.1,63.9,29.80,North,0,0.0,0.0,46,0.00,,,0.00,WUHU21623XXSP,2013-07-06 00:49:00,
2013-07-05 19:54:00,86.9,63.7,29.80,North,0,0.0,0.0,46,0.00,,,0.00,WUHU21623XXSP,2013-07-06 00:54:00,
2013-07-05 19:59:00,86.8,64.2,29.80,North,0,0.0,0.0,47,0.00,,,0.00,WUHU21623XXSP,2013-07-06 00:59:00,
2013-07-05 20:04:00,86.4,63.9,29.80,North,0,0.0,0.0,47,0.00,,,0.00,WUHU21623XXSP,2013-07-06 01:04:00,
2013-07-05 20:09:00,86.3,63.8,29.80,North,0,0.0,0.0,47,0.00,,,0.00,WUHU21623XXSP,2013-07-06 01:09:00,
2013-07-05 20:14:00,86.1,64.2,29.80,North,0,0.0,0.0,48,0.00,,,0.00,WUHU21623XXSP,2013-07-06 01:14:00,
2013-07-05 20:19:00,85.8,63.9,29.80,North,0,0.0,0.0,48,0.00,,,0.00,WUHU21623XXSP,2013-07-06 01:19:00,
2013-07-05 20:24:00,85.6,63.7,29.80,North,0,0.0,0.0,48,0.00,,,0.00,WUHU21623XXSP,2013-07-06 01:24:00,
2013-07-05 20:29:00,85.1,63.9,29.80,North,0,0.0,0.0,49,0.00,,,0.00,WUHU21623XXSP,2013-07-06 01:29:00,
2013-07-05 20:34:00,84.5,63.4,29.81,North,0,0.0,0.0,49,0.00,,,0.00,WUHU21623XXSP,2013-07-06 01:34:00,
2013-07-05 20:39:00,83.9,63.4,29.80,North,0,0.0,0.0,50,0.00,,,0.00,WUHU21623XXSP,2013-07-06 01:39:00,
2013-07-05 20:44:00,83.1,63.3,29.81,North,0,0.0,0.0,51,0.00,,,0.00,WUHU21623XXSP,2013-07-06 01:44:00,
2013-07-05 20:49:00,82.9,63.0,29.81,North,0,0.0,0.0,51,0.00,,,0.00,WUHU21623XXSP,2013-07-06 01:49:00,
2013-07-05 20:54:00,82.7,63.4,29.81,North,0,0.0,0.0,52,0.00,,,0.00,WUHU21623XXSP,2013-07-06 01:54:00,
2013-07-05 20:59:00,82.0,63.4,29.81,North,0,0.0,0.0,53,0.00,,,0.00,WUHU21623XXSP,2013-07-06 01:59:00,
2013-07-05 21:04:00,81.8,63.2,29.81,North,0,0.0,0.0,53,0.00,,,0.00,WUHU21623XXSP,2013-07-06 02:04:00,
2013-07-05 21:05:00,81.7,63.1,29.81,North,0,0.0,0.0,53,0.00,,,0.00,WUHU21623XXSP,2013-07-06 02:05:00,
2013-07-05 21:10:00,81.4,63.4,29.81,North,0,0.0,0.0,54,0.00,,,0.00,WUHU21623XXSP,2013-07-06 02:10:00,
2013-07-05 21:16:00,81.2,63.2,29.81,North,0,0.0,0.0,54,0.00,,,0.00,WUHU21623XXSP,2013-07-06 02:16:00,
2013-07-05 21:20:00,80.8,62.8,29.81,North,0,0.0,0.0,54,0.00,,,0.00,WUHU21623XXSP,2013-07-06 02:20:00,
2013-07-05 21:25:00,80.6,63.2,29.81,North,0,0.0,0.0,55,0.00,,,0.00,WUHU21623XXSP,2013-07-06 02:25:00,
2013-07-05 21:30:00,80.4,63.4,29.81,North,0,0.0,0.0,56,0.00,,,0.00,WUHU21623XXSP,2013-07-06 02:30:00,
2013-07-05 21:35:00,80.5,63.6,29.81,North,0,0.0,0.0,56,0.00,,,0.00,WUHU21623XXSP,2013-07-06 02:35:00,
2013-07-05 21:40:00,80.7,63.8,29.81,North,0,0.0,0.0,56,0.00,,,0.00,WUHU21623XXSP,2013-07-06 02:40:00,
2013-07-05 21:41:00,80.7,63.8,29.81,North,0,0.0,0.0,56,0.00,,,0.00,WUHU21623XXSP,2013-07-06 02:41:00,
2013-07-05 21:46:00,80.7,63.8,29.81,North,0,0.0,0.0,56,0.00,,,0.00,WUHU21623XXSP,2013-07-06 02:46:00,
2013-07-05 21:53:00,79.5,63.6,29.82,North,0,0.0,0.0,58,0.00,,,0.00,WUHU21623XXSP,2013-07-06 02:53:00,
2013-07-05 21:58:00,79.4,63.6,29.83,North,0,0.0,0.0,58,0.00,,,0.00,WUHU21623XXSP,2013-07-06 02:58:00,
2013-07-05 22:03:00,79.3,63.3,29.83,North,0,0.0,0.0,58,0.00,,,0.00,WUHU21623XXSP,2013-07-06 03:03:00,
2013-07-05 22:08:00,79.2,63.7,29.83,North,0,0.0,0.0,59,0.00,,,0.00,WUHU21623XXSP,2013-07-06 03:08:00,
2013-07-05 22:13:00,79.0,63.5,29.83,North,0,0.0,0.0,59,0.00,,,0.00,WUHU21623XXSP,2013-07-06 03:13:00,
2013-07-05 22:18:00,78.6,63.7,29.83,North,0,0.0,0.0,60,0.00,,,0.00,WUHU21623XXSP,2013-07-06 03:18:00,
2013-07-05 22:23:00,78.6,63.7,29.84,North,0,0.0,0.0,60,0.00,,,0.00,WUHU21623XXSP,2013-07-06 03:23:00,
2013-07-05 22:28:00,78.6,63.7,29.83,North,0,0.0,0.0,60,0.00,,,0.00,WUHU21623XXSP,2013-07-06 03:28:00,
2013-07-05 22:33:00,78.4,63.5,29.84,North,0,0.0,0.0,60,0.00,,,0.00,WUHU21623XXSP,2013-07-06 03:33:00,
2013-07-05 22:38:00,78.1,63.1,29.83,North,0,0.0,0.0,60,0.00,,,0.00,WUHU21623XXSP,2013-07-06 03:38:00,
2013-07-05 22:43:00,78.1,63.6,29.83,North,0,0.0,0.0,61,0.00,,,0.00,WUHU21623XXSP,2013-07-06 03:43:00,
2013-07-05 22:48:00,77.7,63.2,29.84,North,0,0.0,0.0,61,0.00,,,0.00,WUHU21623XXSP,2013-07-06 03:48:00,
2013-07-05 22:53:00,77.7,63.7,29.83,North,0,0.0,0.0,62,0.00,,,0.00,WUHU21623XXSP,2013-07-06 03:53:00,
2013-07-05 22:58:00,77.7,63.7,29.84,North,0,0.0,0.0,62,0.00,,,0.00,WUHU21623XXSP,2013-07-06 03:58:00,
2013-07-05 23:01:00,77.5,63.5,29.84,North,0,0.0,0.0,62,0.00,,,0.00,WUHU21623XXSP,2013-07-06 04:01:00,
2013-07-05 23:06:00,77.5,63.5,29.84,North,0,0.0,0.0,62,0.00,,,0.00,WUHU21623XXSP,2013-07-06 04:06:00,
2013-07-05 23:11:00,77.5,63.5,29.84,North,0,0.0,0.0,62,0.00,,,0.00,WUHU21623XXSP,2013-07-06 04:11:00,
2013-07-05 23:16:00,77.4,63.3,29.84,North,0,0.0,0.0,62,0.00,,,0.00,WUHU21623XXSP,2013-07-06 04:16:00,
2013-07-05 23:21:00,77.4,63.3,29.84,North,0,0.0,0.0,62,0.00,,,0.00,WUHU21623XXSP,2013-07-06 04:21:00,
2013-07-05 23:25:00,77.4,63.3,29.84,North,0,0.0,0.0,62,0.00,,,0.00,WUHU21623XXSP,2013-07-06 04:25:00,
2013-07-05 23:26:00,77.4,63.3,29.84,North,0,0.0,0.0,62,0.00,,,0.00,WUHU21623XXSP,2013-07-06 04:26:00,
2013-07-05 23:31:00,77.4,63.3,29.84,North,0,0.0,0.0,62,0.00,,,0.00,WUHU21623XXSP,2013-07-06 04:31:00,
2013-07-05 23:40:00,76.8,63.2,29.85,North,0,0.0,0.0,63,0.00,,,0.00,WUHU21623XXSP,2013-07-06 04:40:00,
2013-07-05 23:45:00,76.8,63.2,29.85,North,0,0.0,0.0,63,0.00,,,0.00,WUHU21623XXSP,2013-07-06 04:45:00,
2013-07-05 23:50:00,76.8,63.2,29.85,North,0,0.0,0.0,63,0.00,,,0.00,WUHU21623XXSP,2013-07-06 04:50:00,
2013-07-05 23:53:00,76.8,63.2,29.85,North,0,0.0,0.0,63,0.00,,,0.00,WUHU21623XXSP,2013-07-06 04:53:00,
2013-07-05 23:55:00,76.8,63.2,29.85,North,0,0.0,0.0,63,0.00,,,0.00,WUHU21623XXSP,2013-07-06 04:55:00,